Location: Sumter
(33.9203°N, 80.3401°W)
Time: 11:23:15
(UTC+00:00)

N. Korean satellite - Visible Passes

Search period start: 12 August 2022 00:00
Search period end: 22 August 2022 00:00
Orbit: 433 x 470 km, 97.3° (Epoch: 11 August)

Date Brightness Start Highest point End Pass type
(mag) Time Alt. Az. Time Alt. Az. Time Alt. Az.
14 Aug 9.2 09:51:03 10° NE 09:53:46 21° E 09:56:29 10° SSE visible
16 Aug 7.7 10:14:13 10° NNE 10:17:37 46° E 10:20:58 10° S visible
17 Aug 9.5 09:40:52 10° ENE 09:42:57 15° E 09:45:01 10° SE visible
19 Aug 8.5 10:03:30 10° NNE 10:06:40 31° E 10:09:47 10° SSE visible
20 Aug 10.0 09:31:15 10° E 09:31:53 10° E 09:32:31 10° ESE visible
